888  
ASUS45 KCYS 150710  
RWRWY  
 
WYOMING REGIONAL WEATHER ROUNDUP  
NATIONAL WEATHER SERVICE CHEYENNE WY  
100 AM MDT SUN SEP 15 2019  
 
NOTE: "FAIR" INDICATES FEW OR NO CLOUDS BELOW 12,000 FEET  
WITH NO SIGNIFICANT WEATHER AND/OR S TO VISIBILITY
.  
 
WYZ001-150800-   
..YELLOWSTONE NATIONAL PARK
 
 
 
CITY SKY/WX TMP DP RH WIND PRES REMARKS
 
LK YELLOWSTONE N/A 38 33 82 NW3 30.29S  
W YELLOWSTONE NOT AVBL  
 

 
WYZ002>013-054>058-071-098>099-150800-   
..NORTHERN WYOMING
 
 
 
CITY SKY/WX TMP DP RH WIND PRES REMARKS
 
JACKSON CLEAR 49 36 61 CALM 30.22R  
CODY PTCLDY 57 40 52 SW7 30.07S  
GREYBULL NOT AVBL  
WORLAND CLEAR 58 44 60 SE9 30.01R  
SHERIDAN PTCLDY 50 44 80 CALM 29.97F  
BUFFALO PTCLDY 58 37 45 S6 30.05F  
GILLETTE PTCLDY 57 43 59 S10 30.02F  
HULETT FAIR 63 41 45 S8G16 30.04S  
NEWCASTLE FAIR 64 34 32 E10 30.07S  
 

 
WYZ014>020-022>026-101>103-150800-   
..CENTRAL WYOMING
 
 
 
CITY SKY/WX TMP DP RH WIND PRES REMARKS
 
BIG PINEY NOT AVBL  
PINEDALE CLEAR 37 36 93 NW6 30.29S WCI 33  
DUBOIS FAIR 50 30 46 W12 30.23S  
LANDER CLEAR 66 28 24 W5 30.10F  
RIVERTON CLEAR 61 38 42 NW12 30.11F  
CASPER NOT AVBL  
DOUGLAS CLEAR 53 35 50 MISG 30.11S  
 

 
WYZ021-027>030-104>119-150800-   
..SOUTHERN WYOMING
 
 
 
CITY SKY/WX TMP DP RH WIND PRES REMARKS
 
EVANSTON NOT AVBL  
KEMMERER CLEAR 50 28 43 N5 30.30S  
FORT BRIDGER CLEAR 57 25 28 W3 30.30F  
ROCK SPRINGS NOT AVBL  
DIXON FAIR 47 31 53 E5 30.30F  
RAWLINS NOT AVBL  
SARATOGA FAIR 50 25 37 SE6 30.31S  
LARAMIE CLEAR 47 26 44 S10 30.31F  
CHEYENNE CLEAR 54 30 40 W9 30.25S  
TORRINGTON CLEAR 57 42 57 S5 30.09S  
PINE BLUFFS FAIR 45 39 81 SW3 30.20S  
 

 
 
 
CLICK HERE TO GO TO PREVIOUS BULLETINS.

The Nexlab WY Page Main Text Page